Location: Cactus School
(34.5700°N, 118.0931°W)
Time: 20:57:25
(UTC-08:00)

Tiangong 1 - Visible Passes

Search period start: 22 February 2018 00:00
Search period end: 04 March 2018 00:00
Orbit: 247 x 268 km, 42.8° (Epoch: 22 February)

Date Brightness Start Highest point End Pass type
(mag) Time Alt. Az. Time Alt. Az. Time Alt. Az.
27 Feb 2.7 19:12:34 10° SW 19:13:24 18° SSW 19:13:24 18° SSW visible
28 Feb 0.9 19:04:49 10° WSW 19:06:38 51° SW 19:06:38 51° SW visible
01 Mar 0.7 18:57:00 10° WSW 18:59:14 53° NNW 18:59:32 47° N visible
02 Mar 1.7 18:49:05 10° W 18:51:11 32° NNW 18:52:07 22° NNE visible
03 Mar 2.3 18:41:02 10° WNW 18:42:56 22° NNW 18:44:24 13° NNE visible
